Location: Unspecified
(0.0000°N, 0.0000°E)
Time: 18:49:47
(UTC+00:00)

Transit 2A Rocket - Pass Details

Date: 26 November 2019
Orbit: 594 x 909 km, 66.7° (Epoch: 05 December)

Event Time Altitude Azimuth Distance (km) Brightness Sun altitude
Rises 17:23:13 0° 179° (S) 3,378 8.6 5.6°
Reaches altitude 10° 17:26:08 10° 167° (SSE) 2,389 7.7 4.9°
Maximum altitude 17:30:37 26° 112° (ESE) 1,479 6.2 3.9°
Drops below altitude 10° 17:34:47 10° 56° (NE) 2,207 6.8 2.9°
Sets 17:37:21 0° 43° (NE) 3,068 7.5 2.3°
